contact:dominique.lefevre@mio.osupytheas.fr, maurice.libes@osupytheas.fr, didier.mallarino@osupytheas.fr
Project:EMSO http://www.emso-fr.org/EMSO-France
Depth: 2436.0 m
Title:EMSO Ligure Ouest : Data MII capteur MICROCAT
DateTime_Computer,Latitude,Longitude,Temperature,Conductivity,Pressure,DateTime_Instrument
DateTime_Computer,Latitude,Longitude,degC,S m-1,dbar,DateTime_Instrument
2017-10-25T00:01:34Z,42.805,6.029,13.3039,4.60052,2471.979,2017-10-25T02:02:59Z
2017-10-25T00:03:09Z,42.805,6.029,13.3039,4.60044,2471.979,2017-10-25T02:04:34Z
2017-10-25T00:04:44Z,42.805,6.029,13.3039,4.60045,2471.979,2017-10-25T02:06:09Z
2017-10-25T00:06:18Z,42.805,6.029,13.3045,4.60048,2472.002,2017-10-25T02:07:44Z
2017-10-25T00:07:53Z,42.805,6.029,13.3046,4.60011,2471.957,2017-10-25T02:09:19Z
2017-10-25T00:09:28Z,42.805,6.029,13.3040,4.59996,2472.002,2017-10-25T02:10:54Z
2017-10-25T00:11:03Z,42.805,6.029,13.3037,4.59998,2472.002,2017-10-25T02:12:28Z
2017-10-25T00:12:38Z,42.805,6.029,13.3033,4.60020,2472.016,2017-10-25T02:14:03Z
2017-10-25T00:14:13Z,42.805,6.029,13.3044,4.60024,2471.957,2017-10-25T02:15:38Z
2017-10-25T00:15:47Z,42.805,6.029,13.3051,4.60025,2472.016,2017-10-25T02:17:13Z
2017-10-25T00:17:22Z,42.805,6.029,13.3044,4.60032,2471.994,2017-10-25T02:18:48Z
2017-10-25T00:18:57Z,42.805,6.029,13.3029,4.60038,2471.979,2017-10-25T02:20:23Z
2017-10-25T00:20:32Z,42.805,6.029,13.3026,4.60036,2472.002,2017-10-25T02:21:57Z
2017-10-25T00:22:07Z,42.805,6.029,13.3027,4.60022,2472.002,2017-10-25T02:23:32Z
2017-10-25T00:23:42Z,42.805,6.029,13.3034,4.60027,2471.979,2017-10-25T02:25:07Z
2017-10-25T00:25:16Z,42.805,6.029,13.3031,4.60006,2471.979,2017-10-25T02:26:42Z
2017-10-25T00:26:51Z,42.805,6.029,13.3030,4.60009,2471.979,2017-10-25T02:28:17Z
2017-10-25T00:28:26Z,42.805,6.029,13.3034,4.60011,2471.957,2017-10-25T02:29:52Z
2017-10-25T00:30:01Z,42.805,6.029,13.3041,4.60010,2471.964,2017-10-25T02:31:26Z
2017-10-25T00:31:36Z,42.805,6.029,13.3038,4.60015,2471.942,2017-10-25T02:33:01Z
2017-10-25T00:33:11Z,42.805,6.029,13.3032,4.60023,2472.002,2017-10-25T02:34:36Z
2017-10-25T00:34:45Z,42.805,6.029,13.3042,4.60027,2471.957,2017-10-25T02:36:11Z
2017-10-25T00:36:20Z,42.805,6.029,13.3035,4.60013,2471.979,2017-10-25T02:37:46Z
2017-10-25T00:37:55Z,42.805,6.029,13.3030,4.60012,2471.942,2017-10-25T02:39:21Z
2017-10-25T00:39:30Z,42.805,6.029,13.3029,4.60001,2471.957,2017-10-25T02:40:55Z
2017-10-25T00:41:05Z,42.805,6.029,13.3037,4.59995,2471.957,2017-10-25T02:42:30Z
2017-10-25T00:42:40Z,42.805,6.029,13.3043,4.60015,2471.957,2017-10-25T02:44:05Z
2017-10-25T00:44:15Z,42.805,6.029,13.3050,4.60029,2471.979,2017-10-25T02:45:40Z
2017-10-25T00:45:49Z,42.805,6.029,13.3041,4.60023,2471.979,2017-10-25T02:47:15Z
2017-10-25T00:47:24Z,42.805,6.029,13.3034,4.60032,2471.957,2017-10-25T02:48:50Z
2017-10-25T00:48:59Z,42.805,6.029,13.3029,4.60036,2471.979,2017-10-25T02:50:25Z
2017-10-25T00:50:34Z,42.805,6.029,13.3023,4.60018,2471.934,2017-10-25T02:51:59Z
2017-10-25T00:52:09Z,42.805,6.029,13.3026,4.60031,2471.957,2017-10-25T02:53:34Z
2017-10-25T00:53:44Z,42.805,6.029,13.3024,4.60048,2471.994,2017-10-25T02:55:09Z
2017-10-25T00:55:18Z,42.805,6.029,13.3019,4.60009,2471.934,2017-10-25T02:56:44Z
2017-10-25T00:56:53Z,42.805,6.029,13.3017,4.60018,2471.934,2017-10-25T02:58:19Z
2017-10-25T00:58:28Z,42.805,6.029,13.3007,4.60009,2471.957,2017-10-25T02:59:54Z
2017-10-25T01:00:03Z,42.805,6.029,13.3015,4.60012,2471.957,2017-10-25T03:01:28Z
2017-10-25T01:01:38Z,42.805,6.029,13.3015,4.60017,2471.934,2017-10-25T03:03:03Z
2017-10-25T01:03:13Z,42.805,6.029,13.3014,4.60032,2471.934,2017-10-25T03:04:38Z
2017-10-25T01:04:47Z,42.805,6.029,13.3011,4.60019,2471.957,2017-10-25T03:06:13Z
2017-10-25T01:06:22Z,42.805,6.029,13.3010,4.60003,2471.979,2017-10-25T03:07:48Z
2017-10-25T01:07:57Z,42.805,6.029,13.3011,4.60007,2471.949,2017-10-25T03:09:23Z
2017-10-25T01:09:32Z,42.805,6.029,13.3016,4.59992,2471.957,2017-10-25T03:10:57Z
2017-10-25T01:11:07Z,42.805,6.029,13.3004,4.60006,2471.971,2017-10-25T03:12:32Z
2017-10-25T01:12:42Z,42.805,6.029,13.3008,4.60008,2472.002,2017-10-25T03:14:07Z
2017-10-25T01:14:16Z,42.805,6.029,13.3010,4.60009,2471.979,2017-10-25T03:15:42Z
2017-10-25T01:15:51Z,42.805,6.029,13.3012,4.60007,2471.957,2017-10-25T03:17:17Z
2017-10-25T01:17:26Z,42.805,6.029,13.3023,4.59992,2471.957,2017-10-25T03:18:52Z
2017-10-25T01:19:01Z,42.805,6.029,13.3038,4.59989,2471.957,2017-10-25T03:20:26Z
2017-10-25T01:20:36Z,42.805,6.029,13.3030,4.60002,2471.971,2017-10-25T03:22:01Z
2017-10-25T01:22:11Z,42.805,6.029,13.3031,4.59998,2471.934,2017-10-25T03:23:36Z
2017-10-25T01:23:45Z,42.805,6.029,13.3033,4.60022,2471.957,2017-10-25T03:25:11Z
2017-10-25T01:25:20Z,42.805,6.029,13.3035,4.60032,2471.957,2017-10-25T03:26:46Z
2017-10-25T01:26:55Z,42.805,6.029,13.3031,4.60019,2471.957,2017-10-25T03:28:21Z
2017-10-25T01:28:30Z,42.805,6.029,13.3029,4.60020,2471.934,2017-10-25T03:29:55Z
2017-10-25T01:30:05Z,42.805,6.029,13.3020,4.60008,2471.934,2017-10-25T03:31:30Z
2017-10-25T01:31:40Z,42.805,6.029,13.3009,4.60023,2471.934,2017-10-25T03:33:05Z
2017-10-25T01:33:14Z,42.805,6.029,13.2986,4.60051,2471.919,2017-10-25T03:34:40Z
2017-10-25T01:34:49Z,42.805,6.029,13.2979,4.60053,2471.957,2017-10-25T03:36:15Z
2017-10-25T01:36:24Z,42.805,6.029,13.2982,4.60021,2471.934,2017-10-25T03:37:50Z
2017-10-25T01:37:59Z,42.805,6.029,13.2991,4.60001,2471.942,2017-10-25T03:39:24Z
2017-10-25T01:39:34Z,42.805,6.029,13.2992,4.60004,2471.934,2017-10-25T03:40:59Z
2017-10-25T01:41:09Z,42.805,6.029,13.3001,4.59999,2471.934,2017-10-25T03:42:34Z
2017-10-25T01:42:43Z,42.805,6.029,13.3008,4.60012,2471.934,2017-10-25T03:44:09Z
2017-10-25T01:44:18Z,42.805,6.029,13.3012,4.60013,2471.934,2017-10-25T03:45:44Z
2017-10-25T01:45:53Z,42.805,6.029,13.3017,4.60008,2471.957,2017-10-25T03:47:19Z
2017-10-25T01:47:28Z,42.805,6.029,13.3032,4.60029,2471.912,2017-10-25T03:48:53Z
2017-10-25T01:49:03Z,42.805,6.029,13.3018,4.60010,2471.934,2017-10-25T03:50:28Z
2017-10-25T01:50:38Z,42.805,6.029,13.3016,4.60009,2471.934,2017-10-25T03:52:03Z
2017-10-25T01:52:12Z,42.805,6.029,13.3017,4.60015,2471.897,2017-10-25T03:53:38Z
2017-10-25T01:53:47Z,42.805,6.029,13.3002,4.60019,2471.971,2017-10-25T03:55:13Z
2017-10-25T01:55:22Z,42.805,6.029,13.3031,4.60014,2471.934,2017-10-25T03:56:48Z
2017-10-25T01:56:57Z,42.805,6.029,13.3008,4.60010,2471.957,2017-10-25T03:58:22Z
2017-10-25T01:58:32Z,42.805,6.029,13.3002,4.60009,2471.934,2017-10-25T03:59:57Z
2017-10-25T02:00:07Z,42.805,6.029,13.3026,4.59995,2471.919,2017-10-25T04:01:32Z
2017-10-25T02:01:41Z,42.805,6.029,13.3021,4.60012,2471.934,2017-10-25T04:03:07Z
2017-10-25T02:03:16Z,42.805,6.029,13.3013,4.60029,2471.934,2017-10-25T04:04:42Z
2017-10-25T02:04:51Z,42.805,6.029,13.3018,4.60006,2471.934,2017-10-25T04:06:17Z
2017-10-25T02:06:26Z,42.805,6.029,13.3013,4.60013,2471.934,2017-10-25T04:07:51Z
2017-10-25T02:08:01Z,42.805,6.029,13.2991,4.60028,2471.934,2017-10-25T04:09:26Z
2017-10-25T02:09:36Z,42.805,6.029,13.3004,4.60021,2471.957,2017-10-25T04:11:01Z
2017-10-25T02:11:10Z,42.805,6.029,13.3016,4.60003,2471.934,2017-10-25T04:12:36Z
2017-10-25T02:12:45Z,42.805,6.029,13.2949,4.60007,2471.934,2017-10-25T04:14:11Z
2017-10-25T02:14:20Z,42.805,6.029,13.2968,4.60007,2471.934,2017-10-25T04:15:46Z
2017-10-25T02:15:55Z,42.805,6.029,13.2988,4.60051,2471.979,2017-10-25T04:17:20Z
2017-10-25T02:17:30Z,42.805,6.029,13.2981,4.60060,2471.919,2017-10-25T04:18:55Z
2017-10-25T02:19:05Z,42.805,6.029,13.2979,4.60064,2471.957,2017-10-25T04:20:30Z
2017-10-25T02:20:39Z,42.805,6.029,13.2989,4.60083,2471.934,2017-10-25T04:22:05Z
2017-10-25T02:22:14Z,42.805,6.029,13.2998,4.60030,2471.934,2017-10-25T04:23:40Z
2017-10-25T02:23:49Z,42.805,6.029,13.2956,4.60046,2471.934,2017-10-25T04:25:15Z
2017-10-25T02:25:24Z,42.805,6.029,13.2954,4.60026,2471.919,2017-10-25T04:26:49Z
2017-10-25T02:26:59Z,42.805,6.029,13.2939,4.60075,2471.934,2017-10-25T04:28:24Z
2017-10-25T02:28:34Z,42.805,6.029,13.2940,4.60064,2471.957,2017-10-25T04:29:59Z
2017-10-25T02:30:09Z,42.805,6.029,13.3004,4.60074,2471.957,2017-10-25T04:31:34Z
2017-10-25T02:31:43Z,42.805,6.029,13.3021,4.60060,2471.934,2017-10-25T04:33:09Z
2017-10-25T02:33:18Z,42.805,6.029,13.3039,4.60052,2471.957,2017-10-25T04:34:44Z
2017-10-25T02:34:53Z,42.805,6.029,13.3048,4.60034,2471.919,2017-10-25T04:36:19Z
2017-10-25T02:36:28Z,42.805,6.029,13.3042,4.60042,2471.934,2017-10-25T04:37:53Z
2017-10-25T02:38:03Z,42.805,6.029,13.3039,4.60029,2471.934,2017-10-25T04:39:28Z
2017-10-25T02:39:38Z,42.805,6.029,13.3029,4.60032,2471.912,2017-10-25T04:41:03Z
2017-10-25T02:41:12Z,42.805,6.029,13.2988,4.60023,2471.889,2017-10-25T04:42:38Z
2017-10-25T02:42:47Z,42.805,6.029,13.2947,4.60032,2471.897,2017-10-25T04:44:13Z
2017-10-25T02:44:22Z,42.805,6.029,13.2941,4.60017,2471.934,2017-10-25T04:45:48Z
2017-10-25T02:45:57Z,42.805,6.029,13.2962,4.60039,2471.934,2017-10-25T04:47:22Z
2017-10-25T02:47:32Z,42.805,6.029,13.2940,4.60049,2471.912,2017-10-25T04:48:57Z
2017-10-25T02:49:07Z,42.805,6.029,13.2936,4.60055,2471.957,2017-10-25T04:50:32Z
2017-10-25T02:50:41Z,42.805,6.029,13.2936,4.60018,2471.934,2017-10-25T04:52:07Z
2017-10-25T02:52:16Z,42.805,6.029,13.2937,4.59979,2471.919,2017-10-25T04:53:42Z
2017-10-25T02:53:51Z,42.805,6.029,13.2937,4.59982,2471.934,2017-10-25T04:55:17Z
2017-10-25T02:55:26Z,42.805,6.029,13.2936,4.59982,2471.897,2017-10-25T04:56:51Z
2017-10-25T02:57:01Z,42.805,6.029,13.2934,4.59981,2471.979,2017-10-25T04:58:26Z
2017-10-25T02:58:36Z,42.805,6.029,13.2938,4.59977,2471.912,2017-10-25T05:00:01Z
2017-10-25T03:00:10Z,42.805,6.029,13.2935,4.59978,2471.934,2017-10-25T05:01:36Z
2017-10-25T03:01:45Z,42.805,6.029,13.2936,4.59984,2471.934,2017-10-25T05:03:11Z
2017-10-25T03:03:20Z,42.805,6.029,13.2935,4.59981,2471.934,2017-10-25T05:04:46Z
2017-10-25T03:04:55Z,42.805,6.029,13.2939,4.59978,2471.942,2017-10-25T05:06:20Z
2017-10-25T03:06:30Z,42.805,6.029,13.2935,4.59975,2471.934,2017-10-25T05:07:55Z
2017-10-25T03:08:05Z,42.805,6.029,13.2939,4.59981,2471.897,2017-10-25T05:09:30Z
2017-10-25T03:09:39Z,42.805,6.029,13.2939,4.59980,2471.934,2017-10-25T05:11:05Z
2017-10-25T03:11:14Z,42.805,6.029,13.2939,4.59979,2471.957,2017-10-25T05:12:40Z
2017-10-25T03:12:49Z,42.805,6.029,13.2935,4.59981,2471.964,2017-10-25T05:14:15Z
2017-10-25T03:14:24Z,42.805,6.029,13.2938,4.59982,2471.919,2017-10-25T05:15:49Z
2017-10-25T03:15:59Z,42.805,6.029,13.2938,4.59979,2471.919,2017-10-25T05:17:24Z
2017-10-25T03:17:34Z,42.805,6.029,13.2938,4.59973,2471.934,2017-10-25T05:18:59Z
2017-10-25T03:19:08Z,42.805,6.029,13.2937,4.59975,2471.897,2017-10-25T05:20:34Z
2017-10-25T03:20:43Z,42.805,6.029,13.2937,4.59978,2471.912,2017-10-25T05:22:09Z
2017-10-25T03:22:18Z,42.805,6.029,13.2938,4.59984,2471.934,2017-10-25T05:23:44Z
2017-10-25T03:23:53Z,42.805,6.029,13.2935,4.59976,2471.919,2017-10-25T05:25:18Z
2017-10-25T03:25:28Z,42.805,6.029,13.2934,4.59978,2471.919,2017-10-25T05:26:53Z
2017-10-25T03:27:03Z,42.805,6.029,13.2935,4.59981,2471.934,2017-10-25T05:28:28Z
2017-10-25T03:28:37Z,42.805,6.029,13.2940,4.59980,2471.934,2017-10-25T05:30:03Z
2017-10-25T03:30:12Z,42.805,6.029,13.2934,4.59978,2471.897,2017-10-25T05:31:38Z
2017-10-25T03:31:47Z,42.805,6.029,13.2939,4.59982,2471.942,2017-10-25T05:33:13Z
2017-10-25T03:33:22Z,42.805,6.029,13.2935,4.59979,2471.897,2017-10-25T05:34:47Z
2017-10-25T03:34:57Z,42.805,6.029,13.2936,4.59979,2471.912,2017-10-25T05:36:22Z
2017-10-25T03:36:32Z,42.805,6.029,13.2935,4.59975,2471.912,2017-10-25T05:37:57Z
2017-10-25T03:38:06Z,42.805,6.029,13.2934,4.59982,2471.957,2017-10-25T05:39:32Z
2017-10-25T03:39:41Z,42.805,6.029,13.2937,4.59981,2471.919,2017-10-25T05:41:07Z
2017-10-25T03:41:16Z,42.805,6.029,13.2939,4.59986,2471.934,2017-10-25T05:42:42Z
2017-10-25T03:42:51Z,42.805,6.029,13.2940,4.59987,2471.934,2017-10-25T05:44:16Z
2017-10-25T03:44:26Z,42.805,6.029,13.2935,4.59975,2471.897,2017-10-25T05:45:51Z
2017-10-25T03:46:01Z,42.805,6.029,13.2940,4.59987,2471.942,2017-10-25T05:47:26Z
2017-10-25T03:47:35Z,42.805,6.029,13.2938,4.59984,2471.957,2017-10-25T05:49:01Z
2017-10-25T03:49:10Z,42.805,6.029,13.2939,4.59980,2471.912,2017-10-25T05:50:36Z
2017-10-25T03:50:45Z,42.805,6.029,13.2936,4.59981,2471.912,2017-10-25T05:52:11Z
2017-10-25T03:52:20Z,42.805,6.029,13.2940,4.59974,2471.934,2017-10-25T05:53:45Z
2017-10-25T03:53:55Z,42.805,6.029,13.2940,4.59984,2471.957,2017-10-25T05:55:20Z
2017-10-25T03:55:30Z,42.805,6.029,13.2939,4.59985,2471.912,2017-10-25T05:56:55Z
2017-10-25T03:57:05Z,42.805,6.029,13.2938,4.59984,2471.942,2017-10-25T05:58:30Z
2017-10-25T03:58:39Z,42.805,6.029,13.2942,4.59981,2471.912,2017-10-25T06:00:05Z
2017-10-25T04:00:14Z,42.805,6.029,13.2940,4.59984,2471.934,2017-10-25T06:01:40Z
2017-10-25T04:01:49Z,42.805,6.029,13.2938,4.59984,2471.957,2017-10-25T06:03:14Z
2017-10-25T04:03:24Z,42.805,6.029,13.2937,4.59982,2471.912,2017-10-25T06:04:49Z
2017-10-25T04:04:59Z,42.805,6.029,13.2935,4.59982,2471.957,2017-10-25T06:06:24Z
2017-10-25T04:06:33Z,42.805,6.029,13.2935,4.59984,2471.934,2017-10-25T06:07:59Z
2017-10-25T04:08:08Z,42.805,6.029,13.2939,4.59981,2471.919,2017-10-25T06:09:34Z
2017-10-25T04:09:43Z,42.805,6.029,13.2935,4.59976,2471.919,2017-10-25T06:11:09Z
2017-10-25T04:11:18Z,42.805,6.029,13.2934,4.59975,2471.934,2017-10-25T06:12:43Z
2017-10-25T04:12:53Z,42.805,6.029,13.2933,4.59984,2471.934,2017-10-25T06:14:18Z
2017-10-25T04:14:28Z,42.805,6.029,13.2942,4.59998,2471.934,2017-10-25T06:15:53Z
2017-10-25T04:16:02Z,42.805,6.029,13.2938,4.60006,2471.934,2017-10-25T06:17:28Z
2017-10-25T04:17:37Z,42.805,6.029,13.2940,4.59992,2471.934,2017-10-25T06:19:03Z
2017-10-25T04:19:12Z,42.805,6.029,13.2940,4.60012,2471.942,2017-10-25T06:20:38Z
2017-10-25T04:20:47Z,42.805,6.029,13.2936,4.60000,2471.897,2017-10-25T06:22:13Z
2017-10-25T04:22:22Z,42.805,6.029,13.2940,4.60041,2471.934,2017-10-25T06:23:47Z
2017-10-25T04:23:57Z,42.805,6.029,13.2938,4.59994,2471.934,2017-10-25T06:25:22Z
2017-10-25T04:25:32Z,42.805,6.029,13.2934,4.59977,2471.897,2017-10-25T06:26:57Z
2017-10-25T04:27:06Z,42.805,6.029,13.2940,4.59995,2471.934,2017-10-25T06:28:32Z
2017-10-25T04:28:41Z,42.805,6.029,13.2935,4.60020,2471.912,2017-10-25T06:30:07Z
2017-10-25T04:30:16Z,42.805,6.029,13.2940,4.60035,2471.897,2017-10-25T06:31:42Z
2017-10-25T04:31:51Z,42.805,6.029,13.2948,4.60035,2471.957,2017-10-25T06:33:16Z
2017-10-25T04:33:26Z,42.805,6.029,13.2950,4.60043,2471.912,2017-10-25T06:34:51Z
2017-10-25T04:35:01Z,42.805,6.029,13.2940,4.60032,2471.934,2017-10-25T06:36:26Z
2017-10-25T04:36:35Z,42.805,6.029,13.2940,4.60017,2471.927,2017-10-25T06:38:01Z
2017-10-25T04:38:10Z,42.805,6.029,13.2944,4.60015,2471.897,2017-10-25T06:39:36Z
2017-10-25T04:39:45Z,42.805,6.029,13.2961,4.60006,2471.934,2017-10-25T06:41:11Z
2017-10-25T04:41:20Z,42.805,6.029,13.2971,4.60045,2471.934,2017-10-25T06:42:45Z
2017-10-25T04:42:55Z,42.805,6.029,13.2974,4.60044,2471.957,2017-10-25T06:44:20Z
2017-10-25T04:44:30Z,42.805,6.029,13.2942,4.60045,2471.919,2017-10-25T06:45:55Z
2017-10-25T04:46:04Z,42.805,6.029,13.2944,4.60021,2471.919,2017-10-25T06:47:30Z
2017-10-25T04:47:39Z,42.805,6.029,13.2986,4.60033,2471.934,2017-10-25T06:49:05Z
2017-10-25T04:49:14Z,42.805,6.029,13.2998,4.60010,2471.934,2017-10-25T06:50:40Z
2017-10-25T04:50:49Z,42.805,6.029,13.2989,4.60038,2471.912,2017-10-25T06:52:14Z
2017-10-25T04:52:24Z,42.805,6.029,13.3000,4.60009,2471.897,2017-10-25T06:53:49Z
2017-10-25T04:53:59Z,42.805,6.029,13.3008,4.60019,2471.919,2017-10-25T06:55:24Z
2017-10-25T04:55:33Z,42.805,6.029,13.3012,4.60021,2471.934,2017-10-25T06:56:59Z
2017-10-25T04:57:08Z,42.805,6.029,13.3006,4.60034,2471.934,2017-10-25T06:58:34Z
2017-10-25T04:58:43Z,42.805,6.029,13.3010,4.60024,2471.919,2017-10-25T07:00:09Z
2017-10-25T05:00:18Z,42.805,6.029,13.3024,4.60047,2471.957,2017-10-25T07:01:43Z
2017-10-25T05:01:53Z,42.805,6.029,13.3008,4.60099,2471.934,2017-10-25T07:03:18Z
2017-10-25T05:03:28Z,42.805,6.029,13.3004,4.60066,2471.957,2017-10-25T07:04:53Z
2017-10-25T05:05:02Z,42.805,6.029,13.3021,4.60063,2471.912,2017-10-25T07:06:28Z
2017-10-25T05:06:37Z,42.805,6.029,13.3015,4.60030,2471.957,2017-10-25T07:08:03Z
2017-10-25T05:08:12Z,42.805,6.029,13.3018,4.60017,2471.919,2017-10-25T07:09:38Z
2017-10-25T05:09:47Z,42.805,6.029,13.3026,4.60044,2471.912,2017-10-25T07:11:12Z
2017-10-25T05:11:22Z,42.805,6.029,13.3018,4.60058,2471.949,2017-10-25T07:12:47Z
2017-10-25T05:12:57Z,42.805,6.029,13.3027,4.60036,2471.934,2017-10-25T07:14:22Z
2017-10-25T05:14:31Z,42.805,6.029,13.3026,4.60016,2471.934,2017-10-25T07:15:57Z
2017-10-25T05:16:06Z,42.805,6.029,13.3032,4.60038,2471.979,2017-10-25T07:17:32Z
2017-10-25T05:17:41Z,42.805,6.029,13.3026,4.60031,2471.912,2017-10-25T07:19:07Z
2017-10-25T05:19:16Z,42.805,6.029,13.3023,4.60003,2471.957,2017-10-25T07:20:41Z
2017-10-25T05:20:51Z,42.805,6.029,13.3023,4.60026,2471.934,2017-10-25T07:22:16Z
2017-10-25T05:22:26Z,42.805,6.029,13.3029,4.60035,2471.912,2017-10-25T07:23:51Z
2017-10-25T05:24:00Z,42.805,6.029,13.3029,4.60020,2471.934,2017-10-25T07:25:26Z
2017-10-25T05:25:35Z,42.805,6.029,13.3027,4.60024,2471.934,2017-10-25T07:27:01Z
2017-10-25T05:27:10Z,42.805,6.029,13.3038,4.60021,2471.912,2017-10-25T07:28:36Z
2017-10-25T05:28:45Z,42.805,6.029,13.3038,4.60005,2471.949,2017-10-25T07:30:10Z
2017-10-25T05:30:20Z,42.805,6.029,13.3026,4.60007,2471.934,2017-10-25T07:31:45Z
2017-10-25T05:31:55Z,42.805,6.029,13.3001,4.60019,2471.934,2017-10-25T07:33:20Z
2017-10-25T05:33:29Z,42.805,6.029,13.3011,4.60022,2471.912,2017-10-25T07:34:55Z
2017-10-25T05:35:04Z,42.805,6.029,13.3019,4.60030,2471.934,2017-10-25T07:36:30Z
2017-10-25T05:36:39Z,42.805,6.029,13.3040,4.60060,2471.934,2017-10-25T07:38:05Z
2017-10-25T05:38:14Z,42.805,6.029,13.3027,4.60021,2471.912,2017-10-25T07:39:39Z
2017-10-25T05:39:49Z,42.805,6.029,13.3023,4.60035,2471.912,2017-10-25T07:41:14Z
2017-10-25T05:41:24Z,42.805,6.029,13.3029,4.60058,2471.934,2017-10-25T07:42:49Z
2017-10-25T05:42:59Z,42.805,6.029,13.3036,4.60009,2471.957,2017-10-25T07:44:24Z
2017-10-25T05:44:33Z,42.805,6.029,13.3046,4.60009,2471.912,2017-10-25T07:45:59Z
2017-10-25T05:46:08Z,42.805,6.029,13.3026,4.60007,2471.934,2017-10-25T07:47:34Z
2017-10-25T05:47:43Z,42.805,6.029,13.3011,4.60010,2471.934,2017-10-25T07:49:09Z
2017-10-25T05:49:18Z,42.805,6.029,13.3015,4.60000,2471.934,2017-10-25T07:50:43Z
2017-10-25T05:50:53Z,42.805,6.029,13.2999,4.59990,2471.942,2017-10-25T07:52:18Z
2017-10-25T05:52:28Z,42.805,6.029,13.3009,4.60005,2471.934,2017-10-25T07:53:53Z
2017-10-25T05:54:02Z,42.805,6.029,13.3009,4.60001,2471.934,2017-10-25T07:55:28Z
2017-10-25T05:55:37Z,42.805,6.029,13.2993,4.60002,2471.957,2017-10-25T07:57:03Z
2017-10-25T05:57:12Z,42.805,6.029,13.3026,4.60020,2471.957,2017-10-25T07:58:38Z
2017-10-25T05:58:47Z,42.805,6.029,13.3011,4.59995,2471.919,2017-10-25T08:00:12Z
2017-10-25T06:00:22Z,42.805,6.029,13.3030,4.59991,2471.919,2017-10-25T08:01:47Z
2017-10-25T06:01:57Z,42.805,6.029,13.3023,4.60005,2471.957,2017-10-25T08:03:22Z
2017-10-25T06:03:31Z,42.805,6.029,13.3023,4.60001,2471.934,2017-10-25T08:04:57Z
2017-10-25T06:05:06Z,42.805,6.029,13.3022,4.59996,2471.979,2017-10-25T08:06:32Z
2017-10-25T06:06:41Z,42.805,6.029,13.3018,4.60001,2471.957,2017-10-25T08:08:07Z
2017-10-25T06:08:16Z,42.805,6.029,13.3021,4.60009,2471.934,2017-10-25T08:09:41Z
2017-10-25T06:09:51Z,42.805,6.029,13.3018,4.60001,2471.934,2017-10-25T08:11:16Z
2017-10-25T06:11:26Z,42.805,6.029,13.3016,4.59992,2471.912,2017-10-25T08:12:51Z
2017-10-25T06:13:00Z,42.805,6.029,13.3010,4.60005,2471.934,2017-10-25T08:14:26Z
2017-10-25T06:14:35Z,42.805,6.029,13.3017,4.60018,2471.971,2017-10-25T08:16:01Z
2017-10-25T06:16:10Z,42.805,6.029,13.3019,4.60011,2471.957,2017-10-25T08:17:36Z
2017-10-25T06:17:45Z,42.805,6.029,13.3017,4.59993,2471.979,2017-10-25T08:19:10Z
2017-10-25T06:19:20Z,42.805,6.029,13.3008,4.60009,2471.957,2017-10-25T08:20:45Z
2017-10-25T06:20:55Z,42.805,6.029,13.3011,4.60003,2471.979,2017-10-25T08:22:20Z
2017-10-25T06:22:29Z,42.805,6.029,13.2998,4.60029,2471.942,2017-10-25T08:23:55Z
2017-10-25T06:24:04Z,42.805,6.029,13.2998,4.60015,2471.979,2017-10-25T08:25:30Z
2017-10-25T06:25:39Z,42.805,6.029,13.2995,4.60001,2471.979,2017-10-25T08:27:05Z
2017-10-25T06:27:14Z,42.805,6.029,13.2982,4.59993,2471.964,2017-10-25T08:28:39Z
2017-10-25T06:28:49Z,42.805,6.029,13.2985,4.59992,2471.949,2017-10-25T08:30:14Z
2017-10-25T06:30:24Z,42.805,6.029,13.2988,4.59992,2471.964,2017-10-25T08:31:49Z
2017-10-25T06:31:58Z,42.805,6.029,13.3002,4.59991,2471.957,2017-10-25T08:33:24Z
2017-10-25T06:33:33Z,42.805,6.029,13.2991,4.59998,2471.979,2017-10-25T08:34:59Z
2017-10-25T06:35:08Z,42.805,6.029,13.2992,4.60009,2471.957,2017-10-25T08:36:34Z
2017-10-25T06:36:43Z,42.805,6.029,13.2997,4.59994,2471.987,2017-10-25T08:38:08Z
2017-10-25T06:38:18Z,42.805,6.029,13.3019,4.60008,2472.002,2017-10-25T08:39:43Z
2017-10-25T06:39:53Z,42.805,6.029,13.3034,4.59997,2471.942,2017-10-25T08:41:18Z
2017-10-25T06:41:27Z,42.805,6.029,13.3035,4.60023,2472.002,2017-10-25T08:42:53Z
2017-10-25T06:43:02Z,42.805,6.029,13.3030,4.60003,2471.979,2017-10-25T08:44:28Z
2017-10-25T06:44:37Z,42.805,6.029,13.3043,4.60001,2471.979,2017-10-25T08:46:03Z
2017-10-25T06:46:12Z,42.805,6.029,13.3029,4.60005,2471.994,2017-10-25T08:47:37Z
2017-10-25T06:47:47Z,42.805,6.029,13.3034,4.60023,2472.002,2017-10-25T08:49:12Z
2017-10-25T06:49:22Z,42.805,6.029,13.3026,4.60005,2471.979,2017-10-25T08:50:47Z
2017-10-25T06:50:56Z,42.805,6.029,13.3019,4.60014,2471.979,2017-10-25T08:52:22Z
2017-10-25T06:52:31Z,42.805,6.029,13.3021,4.60015,2472.002,2017-10-25T08:53:57Z
2017-10-25T06:54:06Z,42.805,6.029,13.3017,4.60012,2471.979,2017-10-25T08:55:32Z
2017-10-25T06:55:41Z,42.805,6.029,13.3015,4.59992,2472.002,2017-10-25T08:57:06Z
2017-10-25T06:57:16Z,42.805,6.029,13.3023,4.60018,2471.979,2017-10-25T08:58:41Z
2017-10-25T06:58:51Z,42.805,6.029,13.3015,4.59996,2472.002,2017-10-25T09:00:16Z
2017-10-25T07:00:25Z,42.805,6.029,13.3029,4.59996,2472.024,2017-10-25T09:01:51Z
2017-10-25T07:02:00Z,42.805,6.029,13.3032,4.59998,2472.002,2017-10-25T09:03:26Z
2017-10-25T07:03:35Z,42.805,6.029,13.3032,4.60004,2472.002,2017-10-25T09:05:01Z
2017-10-25T07:05:10Z,42.805,6.029,13.3033,4.59995,2472.024,2017-10-25T09:06:35Z
2017-10-25T07:06:45Z,42.805,6.029,13.3026,4.60003,2472.002,2017-10-25T09:08:10Z
2017-10-25T07:08:20Z,42.805,6.029,13.3041,4.60006,2471.979,2017-10-25T09:09:45Z
2017-10-25T07:09:54Z,42.805,6.029,13.3038,4.60003,2472.024,2017-10-25T09:11:20Z
2017-10-25T07:11:29Z,42.805,6.029,13.3017,4.60020,2472.024,2017-10-25T09:12:55Z
2017-10-25T07:13:04Z,42.805,6.029,13.3001,4.60013,2472.002,2017-10-25T09:14:30Z
2017-10-25T07:14:39Z,42.805,6.029,13.2998,4.60004,2471.979,2017-10-25T09:16:04Z
2017-10-25T07:16:14Z,42.805,6.029,13.3002,4.60001,2472.002,2017-10-25T09:17:39Z
2017-10-25T07:17:49Z,42.805,6.029,13.3004,4.60009,2472.002,2017-10-25T09:19:14Z
2017-10-25T07:19:23Z,42.805,6.029,13.3011,4.60015,2472.047,2017-10-25T09:20:49Z
2017-10-25T07:20:58Z,42.805,6.029,13.3035,4.59999,2472.024,2017-10-25T09:22:24Z
2017-10-25T07:22:33Z,42.805,6.029,13.3024,4.60009,2472.039,2017-10-25T09:23:59Z
2017-10-25T07:24:08Z,42.805,6.029,13.3023,4.60020,2472.024,2017-10-25T09:25:33Z
2017-10-25T07:25:43Z,42.805,6.029,13.2998,4.60031,2472.016,2017-10-25T09:27:08Z
2017-10-25T07:27:18Z,42.805,6.029,13.3000,4.60012,2472.002,2017-10-25T09:28:43Z
2017-10-25T07:28:52Z,42.805,6.029,13.3007,4.60018,2472.024,2017-10-25T09:30:18Z
2017-10-25T07:30:27Z,42.805,6.029,13.3004,4.60013,2472.024,2017-10-25T09:31:53Z
2017-10-25T07:32:02Z,42.805,6.029,13.3000,4.60005,2472.024,2017-10-25T09:33:28Z
2017-10-25T07:33:37Z,42.805,6.029,13.3010,4.60011,2472.024,2017-10-25T09:35:02Z
2017-10-25T07:35:12Z,42.805,6.029,13.3019,4.60002,2472.01,2017-10-25T09:36:37Z
2017-10-25T07:36:47Z,42.805,6.029,13.3000,4.60011,2472.024,2017-10-25T09:38:12Z
2017-10-25T07:38:22Z,42.805,6.029,13.2998,4.60001,2472.047,2017-10-25T09:39:47Z
2017-10-25T07:39:56Z,42.805,6.029,13.3019,4.59999,2472.024,2017-10-25T09:41:22Z
2017-10-25T07:41:31Z,42.805,6.029,13.3026,4.60003,2472.047,2017-10-25T09:42:57Z
2017-10-25T07:43:06Z,42.805,6.029,13.3029,4.59998,2472.069,2017-10-25T09:44:32Z
2017-10-25T07:44:41Z,42.805,6.029,13.3029,4.60006,2472.047,2017-10-25T09:46:06Z
2017-10-25T07:46:16Z,42.805,6.029,13.3023,4.60005,2472.047,2017-10-25T09:47:41Z